ZF1EJ Savannah KY current weather conditions

sailwx.info

Wind from 082 at 1 knots gusting 1

Air temperature 23.9° C
Dewpoint 23.9° C

Last reported at 2016-Feb-06 01:50 UTC.
Time now 2016-Feb-06 02:59 UTC

Location: N 19°16' W 081°18'.
View on Google Maps.

See reports from other nearby stations

  
Tides and Currents Weather Stations Pressure Air Temp Water Temp Dewpoint Dewpoint Depression Visibility Wind Speed Wind Dir Waves Ship Positions
date/time (UTC)wind fromknots sea level pressurealtimeterstation pressurevisibilityair tempwater tempwave heightnotes
2016-Feb-06 01:50 082 1 gusting 1 23.9
2016-Feb-06 01:40 074 1 gusting 1 24.4
2016-Feb-06 01:30 078 1 gusting 2 24.4
2016-Feb-06 01:20 099 2 gusting 2 24.4
2016-Feb-06 01:10 076 1 gusting 4 24.4
2016-Feb-06 01:00 084 1 gusting 2 25.0
2016-Feb-06 00:50 083 1 gusting 2 25.0
2016-Feb-06 00:40 066 2 gusting 2 25.0
2016-Feb-06 00:30 073 2 gusting 2 25.0
2016-Feb-06 00:20 076 1 gusting 2 25.0
2016-Feb-06 00:10 089 1 gusting 2 25.0
2016-Feb-06 00:00 071 2 gusting 4 25.0
2016-Feb-05 23:50 062 1 gusting 2 25.0
2016-Feb-05 23:40 072 3 gusting 4 25.6
2016-Feb-05 23:30 088 2 gusting 4 25.6
2016-Feb-05 23:20 077 3 gusting 4 25.6
2016-Feb-05 23:10 073 4 gusting 5 26.1
2016-Feb-05 23:00 122 1 gusting 6 26.1
2016-Feb-05 22:50 099 4 gusting 6 26.7
2016-Feb-05 22:40 036 6 gusting 7 26.7
2016-Feb-05 22:30 094 3 gusting 6 27.2
2016-Feb-05 22:20 086 4 gusting 8 27.2
2016-Feb-05 22:10 058 2 gusting 6 27.8
2016-Feb-05 22:00 118 2 gusting 8 27.8
2016-Feb-05 21:50 083 6 gusting 8 27.8
2016-Feb-05 21:40 083 6 gusting 8 27.8
2016-Feb-05 21:30 039 6 gusting 7 27.8
2016-Feb-05 21:20 024 5 gusting 8 28.3
2016-Feb-05 21:10 082 7 gusting 8 27.8
2016-Feb-05 21:00 088 6 gusting 11 27.8
2016-Feb-05 20:50 072 5 gusting 11 28.3
2016-Feb-05 20:40 084 6 gusting 11 28.9
2016-Feb-05 20:30 090 6 gusting 11 28.9
2016-Feb-05 20:20 044 5 gusting 10 28.3
2016-Feb-05 20:10 086 5 gusting 7 28.3
2016-Feb-05 20:00 083 5 gusting 6 28.3
2016-Feb-05 19:50 083 3 gusting 6 28.3
2016-Feb-05 19:40 139 5 gusting 8 28.3
2016-Feb-05 19:30 131 6 gusting 7 27.8
2016-Feb-05 19:20 034 5 gusting 7 28.3
2016-Feb-05 19:10 134 5 gusting 6 28.9
2016-Feb-05 19:00 047 4 gusting 8 28.9
2016-Feb-05 18:50 076 5 gusting 6 28.9
2016-Feb-05 18:40 060 6 gusting 8 28.3
2016-Feb-05 18:30 066 4 gusting 7 28.3
2016-Feb-05 18:20 103 2 gusting 7 28.3
2016-Feb-05 18:10 064 6 gusting 11 28.9
2016-Feb-05 18:00 055 4 gusting 10 28.3
2016-Feb-05 17:50 064 5 gusting 8 28.9
2016-Feb-05 17:40 055 6 gusting 8 28.9
2016-Feb-05 17:30 126 6 gusting 8 28.3
2016-Feb-05 17:20 073 7 gusting 8 28.3
2016-Feb-05 17:10 082 6 gusting 7 28.3
2016-Feb-05 17:00 075 6 gusting 8 28.3
2016-Feb-05 16:50 052 7 gusting 10 27.8
2016-Feb-05 16:40 077 6 gusting 8 27.8
2016-Feb-05 16:30 115 7 gusting 12 28.9
2016-Feb-05 16:20 070 8 gusting 10 28.9
2016-Feb-05 16:10 051 4 gusting 10 29.4
2016-Feb-05 16:00 092 6 gusting 10 28.3
2016-Feb-05 15:50 103 6 gusting 10 28.9
2016-Feb-05 15:40 094 6 gusting 6 28.3
2016-Feb-05 15:30 100 8 gusting 10 28.3
2016-Feb-05 15:20 070 5 gusting 8 28.3
2016-Feb-05 15:10 054 6 gusting 10 28.3
2016-Feb-05 15:00 058 6 gusting 8 27.8
2016-Feb-05 14:50 077 7 gusting 8 27.8
2016-Feb-05 14:40 080 5 gusting 7 27.8
2016-Feb-05 14:30 085 6 gusting 8 26.7
2016-Feb-05 14:10 063 6 gusting 8 27.2
2016-Feb-05 13:50 074 1 gusting 6 27.8
2016-Feb-05 13:40 041 4 gusting 6 26.7
2016-Feb-05 13:30 088 4 gusting 7 26.1
2016-Feb-05 13:20 084 2 gusting 5 26.1
2016-Feb-05 13:10 069 2 gusting 4 25.0
2016-Feb-05 13:00 082 4 gusting 6 24.4
2016-Feb-05 12:50 049 1 gusting 4 24.4
2016-Feb-05 12:40 062 2 gusting 2 23.9
2016-Feb-05 12:30 046 1 gusting 2 23.9
2016-Feb-05 12:20 084 2 gusting 2 23.9
2016-Feb-05 12:10 055 1 gusting 4 23.9
2016-Feb-05 12:00 065 2 gusting 4 23.9
2016-Feb-05 11:50 049 2 gusting 4 24.4
2016-Feb-05 11:40 044 2 gusting 5 24.4
2016-Feb-05 11:30 009 4 gusting 6 25.0
2016-Feb-05 11:20 059 1 gusting 2 24.4
2016-Feb-05 11:10 051 2 gusting 4 24.4
2016-Feb-05 11:00 041 2 gusting 2 25.0
2016-Feb-05 10:50 008 1 gusting 4 24.4
2016-Feb-05 10:40 031 1 gusting 4 25.0
2016-Feb-05 10:30 007 1 gusting 2 25.0
2016-Feb-05 10:20 003 2 gusting 4 25.0
2016-Feb-05 10:10 004 2 gusting 4 25.0
2016-Feb-05 10:00 005 2 gusting 5 24.4
2016-Feb-05 09:50 349 1 gusting 2 24.4
2016-Feb-05 09:40 354 2 gusting 5 24.4
2016-Feb-05 09:30 008 2 gusting 5 24.4
2016-Feb-05 09:20 003 1 gusting 2 24.4
2016-Feb-05 09:10 350 1 gusting 5 25.0
2016-Feb-05 09:00 24.4
2016-Feb-05 08:50 001 3 gusting 4 24.4
2016-Feb-05 08:40 010 4 gusting 5 24.4
2016-Feb-05 08:30 342 2 gusting 5 24.4
2016-Feb-05 08:20 003 3 gusting 4 24.4
2016-Feb-05 08:10 018 3 gusting 4 24.4
2016-Feb-05 08:00 343 3 gusting 5 24.4
2016-Feb-05 07:50 348 2 gusting 4 24.4
2016-Feb-05 07:40 001 1 gusting 4 24.4
2016-Feb-05 07:30 003 1 gusting 4 24.4
2016-Feb-05 07:20 347 1 gusting 4 24.4
2016-Feb-05 07:10 348 2 gusting 2 24.4
2016-Feb-05 07:00 329 2 gusting 4 24.4
2016-Feb-05 06:50 003 2 gusting 4 24.4
2016-Feb-05 06:40 010 1 gusting 2 25.0
2016-Feb-05 06:30 007 1 gusting 4 24.4
2016-Feb-05 06:20 001 2 gusting 4 24.4
2016-Feb-05 06:10 352 3 gusting 5 25.0
2016-Feb-05 06:00 008 3 gusting 4 25.0
2016-Feb-05 05:50 323 3 gusting 4 25.0
2016-Feb-05 05:40 25.0
2016-Feb-05 05:30 351 2 gusting 5 25.0
2016-Feb-05 05:20 353 2 gusting 5 25.0
2016-Feb-05 05:10 24.4
2016-Feb-05 05:00 349 2 gusting 4 24.4
2016-Feb-05 04:50 342 2 gusting 2 24.4
2016-Feb-05 04:40 008 1 gusting 2 24.4
2016-Feb-05 04:30 012 1 gusting 2 25.0
2016-Feb-05 04:20 350 1 gusting 2 24.4
2016-Feb-05 04:10 348 1 gusting 1 24.4
2016-Feb-05 03:30 015 2 gusting 2 24.4
2016-Feb-05 03:20 351 1 gusting 2 25.0
2016-Feb-05 03:10 345 0 gusting 1 25.0
2016-Feb-05 03:00 348 1 gusting 4 25.0
2016-Feb-05 02:50 350 1 gusting 4 25.0
2016-Feb-05 02:40 008 2 gusting 4 25.0
2016-Feb-05 02:30 25.6
2016-Feb-05 02:20 351 2 gusting 2 25.6
2016-Feb-05 02:10 348 0 gusting 1 25.6
2016-Feb-05 02:00 326 25.0
2016-Feb-05 01:50 011 25.0
2016-Feb-05 01:40 045 24.4
2016-Feb-05 01:30 079 0 gusting 0 25.0
2016-Feb-05 01:20 013 24.4
2016-Feb-05 01:10 325 25.0
2016-Feb-05 01:00 345 25.0
2016-Feb-05 00:50 022 25.0
2016-Feb-05 00:40 332 25.0
2016-Feb-05 00:30 016 25.0
2016-Feb-05 00:20 030 1 gusting 2 24.4
2016-Feb-05 00:10 079 3 gusting 4 24.4
2016-Feb-05 00:00 062 2 gusting 4 25.0
2016-Feb-04 23:50 060 4 gusting 5 25.6
2016-Feb-04 23:40 098 5 gusting 6 25.6
2016-Feb-04 23:30 120 4 gusting 6 26.1
2016-Feb-04 23:20 155 5 gusting 6 26.7
2016-Feb-04 23:10 075 2 gusting 5 26.7
2016-Feb-04 23:00 129 4 gusting 6 26.7
2016-Feb-04 22:50 133 4 gusting 6 27.2
2016-Feb-04 22:40 136 2 gusting 6 26.7
2016-Feb-04 22:30 139 6 gusting 6 27.2
2016-Feb-04 22:20 101 4 gusting 6 27.2
2016-Feb-04 22:10 150 5 gusting 6 27.8
2016-Feb-04 22:00 160 4 gusting 6 28.3
2016-Feb-04 21:50 121 2 gusting 6 27.8
2016-Feb-04 21:40 134 4 gusting 6 27.2
2016-Feb-04 21:30 145 4 gusting 6 27.8